Preview of NWS' New Version of Forecast
This preview is not operational and should not be used for support decisions.

Regional Weather Roundup (RWR)

Issued by National Weather Service (NWS)

                            
000
ASUS46 KPQR 210410
RWROR 

OREGON REGIONAL WEATHER ROUNDUP
NATIONAL WEATHER SERVICE PORTLAND OR
900 PM PDT SAT APR 20 2019

NOTE: "FAIR" INDICATES FEW OR NO CLOUDS BELOW 12,000 FEET WITH
NO SIGNIFICANT WEATHER AND/OR OBSTRUCTIONS TO VISIBILITY.

ORZ001>013-210500-
NORTHWEST OREGON

  
CITY           SKY/WX    TMP DP  RH WIND       PRES   REMARKS
ASTORIA        CLOUDY    51  44  77 W5        30.16R                  
TILLAMOOK      CLOUDY    50  45  81 CALM      30.19R                  
NEWPORT        CLOUDY    50  43  76 N9        30.21R                  
PORTLAND       PTCLDY    58  45  62 N7        30.10R                  
VANCOUVER WA   CLEAR     57  45  64 NW7       30.10R                  
SCAPPOOSE      CLEAR     56  45  66 N8        30.10R                  
HILLSBORO      CLEAR     53  45  74 NW15      30.10R                  
AURORA         MOCLDY    55  47  74 SW8       30.11R                  
MCMINNVILLE    PTCLDY    50  44  80 SW12      30.11R                  
SALEM          PTCLDY    50  42  74 W8        30.12R                  
CORVALLIS      CLEAR     49  44  83 W12       30.15R                  
EUGENE         PTCLDY    49  42  77 SW3       30.15R                  
$$

ORZ021-028-210500-
SOUTHWEST OREGON

  
CITY           SKY/WX    TMP DP  RH WIND       PRES   REMARKS
NORTH BEND     CLOUDY    51  44  77 N12       30.22R                  
BROOKINGS      CLEAR     50  43  77 NW10      30.11R                  
ROSEBURG       MOCLDY    52  41  66 NW6       30.15R                  
SEXTON SUMMIT  FOG       38  38 100 CALM      30.09R VSB 1/4          
GRANTS PASS    CLOUDY    52  41  66 VRB5      30.15R                  
MEDFORD        CLOUDY    53  38  56 NW5       30.10R                  
$$

ORZ014>016-041-210500-
COLUMBIA GORGE

  
CITY           SKY/WX    TMP DP  RH WIND       PRES   REMARKS
TROUTDALE      CLEAR     59  45  59 NW7       30.09R                  
HOOD RIVER     CLEAR     55  39  54 MISG      30.04R                  
THE DALLES     PTCLDY    57  41  55 NW12      30.00R                  
$$

ORZ029>031-041-044-049-050-061>064-502-503-505>511-210500-
EASTERN OREGON

  
CITY           SKY/WX    TMP DP  RH WIND       PRES   REMARKS
MADRAS         CLEAR     45  34  65 W8        30.06R                  
REDMOND        PTCLDY    47  37  68 NW6       30.05R                  
BEND           MOCLDY    45  36  70 NW7G14    30.05R                  
PRINEVILLE     CLOUDY    46  34  61 NW13      30.04R                  
KLAMATH FALLS  CLEAR     42  36  79 W13       30.01R                  
LAKEVIEW       CLOUDY    43  38  82 N15       29.98R                  
HERMISTON      CLEAR     58  44  60 SW9       29.94R                  
PENDLETON      PTCLDY    51  43  74 W6        29.96R                  
JOHN DAY       CLOUDY    46  39  76 CALM      29.98R                  
MEACHAM        FOG       40  38  93 CALM      29.98R VSB 1            
LA GRANDE      CLOUDY    49  42  77 NW9       29.96R                  
BAKER CITY     CLOUDY    49  39  68 W14       29.94R                  
BURNS          MOCLDY    45  37  73 W12       29.95R                  
ROME             N/A     48  43  82 N7        29.90R                  
ONTARIO        CLOUDY    54  43  66 NW18      29.88R                  
$$